Boothville, LA

7:23 PM CDT on March 25, 2017 (GMT -0500)
Boothville

Weather History for KBVE - November, 2013

Change the Weather History Date:

Friday, November 1, 2013

  Actual Average (KAXO) Record (KAXO)
Temperature  
Mean Temperature 72 °F -  
Max Temperature 77 °F 70 °F 82 °F (2016)
Min Temperature 66 °F 67 °F 53 °F (2014)
Cooling Degree Days 6    
Growing Degree Days 22 (Base 50)    
Moisture  
Dew Point 66 °F    
Average Humidity 84    
Maximum Humidity 94    
Minimum Humidity 63    
Precipitation  
Precipitation 0.11 in - - ()
Sea Level Pressure  
Sea Level Pressure 29.87 in    
Wind  
Wind Speed 11 mph (WNW)    
Max Wind Speed 23 mph    
Max Gust Speed 31 mph    
Visibility 9 miles    
Events Rain    
Averages and records for this station are not official NWS values.
T = Trace of Precipitation, MM = Missing Value Source: NWS Daily Summary

Daily Weather History Graph

Daily Weather History Graph

Search for Another Location

Airport or City:

Trip Planner

Search our weather history database for the weather conditions in past years. The results will help you decide how hot, cold, wet, or windy it might be!

Date:

Astronomy

Nov. 01, 2013 Rise Set
Actual Time 7:10 AM CDT 6:11 PM CDT
Civil Twilight 6:46 AM CDT 6:35 PM CDT
Nautical Twilight 6:18 AM CDT 7:03 PM CDT
Astronomical Twilight 5:50 AM CDT 7:31 PM CDT
Moon 5:11 AM CDT (11/1) 4:58 PM CDT (11/1)
Length of Visible Light 11h 49m
Length of Day
11h 00m
Waning Crescent, 4% of the Moon is Illuminated
Nov 1
Waning Crescent
Nov 3
New
Nov 9
First Quarter
Nov 17
Full
Nov 25
Last Quarter

Hourly Weather History & Observations

Time (CDT) Temp. Dew Point Humidity Pressure Visibility Wind Dir Wind Speed Gust Speed Precip Events Conditions
12:51 AM 75.0 °F 70.0 °F 84% 29.84 in 7.0 mi South 16.1 mph 24.2 mph 0.08 in Rain Light Rain
1:51 AM 77.0 °F 73.0 °F 88% 29.82 in 8.0 mi South 18.4 mph 27.6 mph 0.00 in Rain Light Rain
2:51 AM 77.0 °F 73.0 °F 88% 29.81 in 9.0 mi SSW 18.4 mph 26.5 mph 0.00 in   Clear
3:46 AM 77.0 °F 71.6 °F 83% 29.81 in 7.0 mi SW 11.5 mph 19.6 mph 0.00 in Rain Light Rain
3:51 AM 75.9 °F 73.0 °F 91% 29.81 in 7.0 mi SW 9.2 mph - 0.00 in Rain Light Rain
4:24 AM 75.2 °F 73.4 °F 94% 29.82 in 8.0 mi SW 10.4 mph - 0.00 in   Overcast
4:38 AM 75.2 °F 71.6 °F 89% 29.82 in 10.0 mi WSW 13.8 mph - 0.00 in   Overcast
4:51 AM 75.9 °F 73.0 °F 91% 29.82 in 10.0 mi SW 13.8 mph - 0.00 in   Mostly Cloudy
5:01 AM 75.2 °F 71.6 °F 89% 29.81 in 10.0 mi SW 23.0 mph 31.1 mph N/A   Mostly Cloudy
5:25 AM 75.2 °F 71.6 °F 89% 29.82 in 10.0 mi SW 16.1 mph 23.0 mph N/A   Overcast
5:51 AM 75.9 °F 73.0 °F 91% 29.82 in 10.0 mi WSW 11.5 mph - 0.00 in   Overcast
6:15 AM 69.8 °F 66.2 °F 88% 29.84 in 10.0 mi NW 15.0 mph 26.5 mph N/A   Overcast
6:51 AM 69.1 °F 64.9 °F 87% 29.86 in 10.0 mi NNW 16.1 mph 23.0 mph N/A   Mostly Cloudy
7:51 AM 69.1 °F 64.9 °F 87% 29.88 in 10.0 mi NNW 15.0 mph - N/A   Overcast
8:40 AM 68.0 °F 64.4 °F 88% 29.89 in 6.0 mi NNW 11.5 mph - 0.00 in Rain Light Rain
8:46 AM 68.0 °F 64.4 °F 88% 29.89 in 2.5 mi NNW 10.4 mph - 0.01 in Rain Rain
8:51 AM 68.0 °F 64.0 °F 87% 29.89 in 2.0 mi NNW 11.5 mph - 0.02 in Rain Rain
9:02 AM 68.0 °F 64.4 °F 88% 29.90 in 6.0 mi North 9.2 mph - 0.00 in Rain Light Rain
9:51 AM 69.1 °F 64.0 °F 84% 29.91 in 9.0 mi North 6.9 mph - 0.00 in Rain Light Rain
10:46 AM 68.0 °F 64.0 °F 87% 29.91 in 8.0 mi NNW 5.8 mph - 0.01 in   Overcast
11:02 AM 68.0 °F 64.4 °F 88% 29.92 in 9.0 mi Variable 5.8 mph - N/A   Overcast
11:09 AM 68.0 °F 64.4 °F 88% 29.91 in 10.0 mi North 4.6 mph - N/A   Overcast
11:37 AM 69.8 °F 64.4 °F 83% 29.91 in 10.0 mi NNE 4.6 mph - N/A   Overcast
11:44 AM 69.8 °F 64.4 °F 83% 29.91 in 10.0 mi Variable 4.6 mph - N/A   Overcast
11:51 AM 69.1 °F 64.0 °F 84% 29.91 in 10.0 mi Variable 4.6 mph - N/A   Overcast
12:51 PM 69.1 °F 63.0 °F 81% 29.89 in 10.0 mi NNW 4.6 mph - N/A   Overcast
1:51 PM 71.1 °F 64.0 °F 78% 29.86 in 10.0 mi Calm Calm - N/A   Overcast
2:51 PM 71.1 °F 63.0 °F 75% 29.85 in 10.0 mi Variable 4.6 mph - N/A   Partly Cloudy
3:51 PM 71.1 °F 63.0 °F 75% 29.83 in 10.0 mi ENE 3.5 mph - N/A   Clear
4:51 PM 72.0 °F 63.0 °F 73% 29.84 in 10.0 mi Calm Calm - N/A   Clear
5:51 PM 71.1 °F 62.1 °F 73% 29.85 in 10.0 mi WSW 3.5 mph - N/A   Clear
6:51 PM 69.1 °F 63.0 °F 81% 29.88 in 10.0 mi Calm Calm - N/A   Clear
7:51 PM 68.0 °F 62.1 °F 81% 29.90 in 10.0 mi NW 4.6 mph - N/A   Clear
8:51 PM 66.9 °F 61.0 °F 81% 29.91 in 10.0 mi WNW 3.5 mph - N/A   Clear
9:51 PM 66.0 °F 59.0 °F 78% 29.93 in 10.0 mi WNW 3.5 mph - N/A   Clear
10:51 PM 66.0 °F 61.0 °F 84% 29.94 in 10.0 mi NW 5.8 mph - N/A   Clear
11:51 PM 69.1 °F 55.9 °F 63% 29.94 in 10.0 mi NNW 6.9 mph - N/A   Clear